This demonstration page uses our WeatherBlox Daily Observations layout. Learn more.

Left ArrowRight Arrow

44.89941, -97.11507

Hourly Observations for February 14, 2021

Temp ( °F °C ) Dew Point ( °F °C ) Humidity (%) Winds ( mph kmh ) Pressure ( in mb ) Visibility ( mi km ) Precip ( " mm )
12:53 am 00:53 Clear -22 -30 -30 -34.4 65 65 N 8 13 30.74 1041 10 16 0.00 0.00
1:53 am 01:53 Clear -23 -30.6 -30 -34.4 69 69 N 10 17 30.75 1041 10 16 0.00 0.00
2:53 am 02:53 Clear -22 -30 -29 -33.9 69 69 NNW 9 15 30.75 1041 10 16 0.00 0.00
3:53 am 03:53 Clear -23 -30.6 -29 -33.9 73 73 NNW 10 17 30.74 1041 10 16 0.00 0.00
4:53 am 04:53 Clear -23 -30.6 -29 -33.9 73 73 NNW 8 13 30.75 1041 10 16 0.00 0.00
5:53 am 05:53 Clear -25 -31.7 -30 -34.4 77 77 N 6 9 30.79 1043 10 16 0.00 0.00
6:53 am 06:53 Clear -25 -31.7 -30 -34.4 77 77 NNW 7 11 30.81 1043 10 16 0.00 0.00
7:53 am 07:53 Sunny -24 -31.1 -30 -34.4 73 73 NW 7 11 30.83 1044 10 16 0.00 0.00
8:53 am 08:53 Sunny -22 -30 -29 -33.9 69 69 NW 8 13 30.84 1044 10 16 0.00 0.00
9:53 am 09:53 Sunny -21 -29.4 -27 -32.8 72 72 NW 8 13 30.84 1045 10 16 0.00 0.00
10:53 am 10:53 Sunny -18 -27.8 -26 -32.2 66 66 WNW 6 9 30.84 1044 10 16 0.00 0.00
11:53 am 11:53 Sunny -16 -26.7 -25 -31.7 63 63 NW 7 11 30.84 1044 10 16 0.00 0.00
12:53 pm 12:53 Sunny -15 -26.1 -25 -31.7 59 59 NW 9 15 30.81 1043 10 16 0.00 0.00
1:53 pm 13:53 Sunny -14 -25.6 -25 -31.7 57 57 WNW 8 13 30.79 1043 10 16 0.00 0.00
2:53 pm 14:53 Sunny -14 -25.6 -25 -31.7 57 57 WNW 7 11 30.77 1042 10 16 0.00 0.00
3:53 pm 15:53 Sunny -14 -25.6 -25 -31.7 57 57 NW 8 13 30.76 1042 10 16 0.00 0.00
4:53 pm 16:53 Sunny -14 -25.6 -24 -31.1 60 60 NW 7 11 30.75 1041 10 16 0.00 0.00
5:53 pm 17:53 Sunny -15 -26.1 -24 -31.1 63 63 WNW 3 6 30.74 1041 10 16 0.00 0.00
6:53 pm 18:53 Clear -18 -27.8 -25 -31.7 69 69 WSW 3 6 30.76 1042 10 16 0.00 0.00
7:53 pm 19:53 Clear -19 -28.3 -25 -31.7 73 73 SW 5 7 30.76 1042 10 16 0.00 0.00
8:53 pm 20:53 Clear -19 -28.3 -26 -32.2 69 69 S 3 6 30.75 1041 10 16 0.00 0.00
9:53 pm 21:53 Clear -20 -28.9 -25 -31.7 77 77 Calm 30.76 1042 10 16 0.00 0.00
10:53 pm 22:53 Clear -20 -28.9 -27 -32.8 69 69 Calm 30.74 1041 10 16 0.00 0.00
11:53 pm 23:53 Clear -21 -29.4 -26 -32.2 77 77 S 3 6 30.72 1040 10 16 0.00 0.00

Powered by AerisWeather